Location: Chamerau
(49.1969°N, 12.7525°E)
Time: 08:17:55
(UTC+00:00)

USA 116 - Pass Details

Date: 18 September 2020
Orbit: 405 x 834 km, 97.9° (Epoch: 18 November)

Event Time Altitude Azimuth Distance (km) Brightness Sun altitude
Rises 18:16:54 0° 11° (N) 2,415 7.1 -10.8°
Reaches altitude 10° 18:18:51 10° 8° (N) 1,578 6.2 -11.1°
Maximum altitude 18:22:10 64° 286° (WNW) 531 3.9 -11.7°
Drops below altitude 10° 18:25:49 10° 205° (SSW) 1,734 6.4 -12.2°
Sets 18:28:02 0° 202° (SSW) 2,685 7.3 -12.6°
